Location: Carrières
(48.9495°N, 2.0407°E)
Time: 04:18:01
(UTC+00:00)

Transit 2A Rocket - Pass Details

Date: 30 April 2024
Orbit: 585 x 908 km, 66.7° (Epoch: 19 May)

Event Time Altitude Azimuth Distance (km) Brightness Sun altitude
Rises 09:21:50 0° 212° (SSW) 2,897 8.0 44.7°
Reaches altitude 10° 09:24:00 10° 211° (SSW) 2,031 7.4 45.0°
Maximum altitude 09:28:35 84° 124° (SE) 691 5.8 45.6°
Drops below altitude 10° 09:33:40 10° 37° (NE) 2,241 7.5 46.2°
Sets 09:36:10 0° 37° (NE) 3,224 8.2 46.5°
